sat.trackr.live / text

‹ back to catalog

STARLINK-31825

NORAD 60056 · 2024-112U

PAYLOAD ACTIVE UNKNOWN

§ Identity

Operator
Country
US
Launch date
2024-06-08
Launch site
AFWTR
Launch vehicle
Mass (kg)
RCS (m²)

Purposes: comms

External: N2YO · Heavens-Above · Gunter

§ Orbital elements

Epoch: 2026-09-21T03:41:54.195072Z

Period
93.85 min
Inclination
53.1576°
Eccentricity
0.0001013
Mean motion
15.34384924 rev/d
Perigee alt
462.1 km
Apogee alt
463.4 km
Semi-major
6,840.9 km
B*
-6.1375e-6
RAAN
248.6283°
Arg perigee
62.7661°
Mean anomaly
297.3445°
Rev number
12,854

§ Raw data

STARLINK-318251 60056U 24112U   26264.15409948 -.00000583  00000+0 -61375-5 0  99912 60056  53.1576 248.6283 0001013  62.7661 297.3445 15.34384924128549

JSON: /api/v1/satellites/60056 · /tle

For live sub-satellite position, see the globe view (requires WebGL).

§ Visibility from observer

Set your observer location to see the next 7 days of passes ≥ 10°. The values pass through the URL so the page stays shareable.

No JS? Fill the form by hand. The geolocation button needs JavaScript.